| time (UTC) | temp F | wind direction | speed knots | gust knots | rain 1hr in | rain 24hr in | rain mn in | humidity % | barometer mb |
| 20260507120730 | 48 | 269 | 3.5 | 5.2 | 0.00 | 0.00 | 0.00 | 50 | 1017.2 |
| 20260507114730 | 49 | 188 | 3.5 | 6.1 | 0.00 | 0.00 | 0.00 | 47 | 1017.2 |
| 20260507112729 | 50 | 360 | 3.5 | 6.1 | 0.00 | 0.00 | 0.00 | 39 | 1017.1 |
| 20260507110729 | 49 | 4 | 4.3 | 6.1 | 0.00 | 0.00 | 0.00 | 37 | 1017.1 |
| 20260507104728 | 49 | 24 | 4.3 | 7.0 | 0.00 | 0.00 | 0.00 | 40 | 1017.0 |
| 20260507102729 | 48 | 55 | 5.2 | 7.0 | 0.00 | 0.00 | 0.00 | 41 | 1016.9 |
| 20260507100729 | 47 | 49 | 5.2 | 7.0 | 0.00 | 0.00 | 0.00 | 45 | 1016.7 |
| 20260507094729 | 48 | 55 | 5.2 | 7.8 | 0.00 | 0.00 | 0.00 | 48 | 1016.6 |
| 20260507092729 | 48 | 74 | 6.1 | 7.8 | 0.00 | 0.00 | 0.00 | 51 | 1016.5 |
| 20260507090729 | 49 | 81 | 6.1 | 7.8 | 0.00 | 0.00 | 0.00 | 50 | 1016.3 |
| 20260507084729 | 47 | 71 | 6.1 | 7.8 | 0.00 | 0.00 | 0.00 | 50 | 1016.3 |
| 20260507082729 | 47 | 69 | 6.1 | 7.8 | 0.00 | 0.00 | 0.00 | 51 | 1016.3 |
| 20260507080729 | 47 | 70 | 6.1 | 7.8 | 0.00 | 0.00 | 0.00 | 57 | 1016.2 |
| 20260507074729 | 47 | 70 | 6.1 | 8.7 | 0.00 | 0.00 | 0.00 | 58 | 1016.2 |
| 20260507072729 | 47 | 70 | 7.0 | 9.6 | 0.00 | 0.00 | 0.00 | 54 | 1016.2 |
| 20260507070728 | 45 | 67 | 7.8 | 9.6 | 0.00 | 0.00 | 0.00 | 60 | 1016.2 |
| 20260507064729 | 46 | 69 | 7.0 | 8.7 | 0.00 | 0.00 | 0.00 | 59 | 1016.1 |
| 20260507062728 | 45 | 66 | 7.8 | 9.6 | 0.00 | 0.00 | 0.00 | 60 | 1016.0 |
| 20260507060728 | 45 | 62 | 7.0 | 9.6 | 0.00 | 0.00 | 0.00 | 60 | 1016.0 |
| 20260507054729 | 45 | 62 | 6.1 | 7.8 | 0.00 | 0.00 | 0.00 | 62 | 1015.9 |
| 20260507052728 | 42 | 55 | 7.0 | 7.8 | 0.00 | 0.00 | 0.00 | 71 | 1015.7 |
| 20260507050728 | 43 | 51 | 7.0 | 8.7 | 0.00 | 0.00 | 0.00 | 72 | 1015.6 |
| 20260507044728 | 43 | 42 | 7.0 | 8.7 | 0.00 | 0.00 | 0.00 | 73 | 1015.6 |
| 20260507042728 | 42 | 42 | 6.1 | 8.7 | 0.00 | 0.00 | 0.00 | 73 | 1015.6 |
| 20260507040729 | 42 | 50 | 7.0 | 8.7 | 0.00 | 0.00 | 0.00 | 74 | 1015.6 |
| 20260507032729 | 40 | 54 | 7.0 | 8.7 | 0.00 | 0.00 | 0.00 | 76 | 1015.4 |
| 20260507030729 | 40 | 45 | 6.1 | 7.8 | 0.00 | 0.00 | 0.00 | 76 | 1015.3 |
| 20260507024727 | 38 | 27 | 6.1 | 7.8 | 0.00 | 0.00 | 0.00 | 81 | 1015.4 |
| 20260507014727 | 38 | 20 | 7.0 | 8.7 | 0.00 | 0.00 | 0.00 | 83 | 1015.3 |
| 20260507012727 | 38 | 8 | 7.0 | 8.7 | 0.00 | 0.00 | 0.00 | 81 | 1015.2 |
| 20260507010727 | 38 | 9 | 7.0 | 7.8 | 0.00 | 0.00 | 0.00 | 80 | 1015.2 |
| 20260507004727 | 38 | 18 | 6.1 | 7.0 | 0.00 | 0.00 | 0.00 | 79 | 1015.1 |
| 20260507002728 | 39 | 41 | 5.2 | 6.1 | 0.00 | 0.00 | 0.00 | 72 | 1014.9 |
| 20260507000727 | 39 | 40 | 6.1 | 7.8 | 0.00 | 0.00 | 0.00 | 73 | 1014.8 |
| 20260506234728 | 39 | 36 | 6.1 | 7.8 | 0.00 | 0.00 | 0.00 | 78 | 1014.7 |
| 20260506232727 | 39 | 28 | 7.0 | 7.8 | 0.00 | 0.00 | 0.00 | 77 | 1014.7 |
| 20260506230729 | 39 | 25 | 7.0 | 8.7 | 0.00 | 0.00 | 0.00 | 80 | 1014.7 |
| 20260506224727 | 39 | 12 | 7.0 | 7.8 | 0.00 | 0.00 | 0.00 | 84 | 1014.6 |
| 20260506222728 | 39 | 9 | 7.0 | 7.8 | 0.00 | 0.00 | 0.00 | 79 | 1014.7 |
| 20260506220727 | 39 | 5 | 6.1 | 7.0 | 0.00 | 0.00 | 0.00 | 80 | 1014.6 |
| 20260506214727 | 40 | 352 | 5.2 | 7.8 | 0.00 | 0.00 | 0.00 | 79 | 1014.5 |
| 20260506212727 | 40 | 343 | 5.2 | 6.1 | 0.00 | 0.00 | 0.00 | 80 | 1014.5 |
| 20260506210727 | 41 | 23 | 3.5 | 4.3 | 0.00 | 0.00 | 0.00 | 76 | 1014.5 |
| 20260506204726 | 40 | 1 | 4.3 | 5.2 | 0.00 | 0.00 | 0.00 | 77 | 1014.4 |
| 20260506202727 | 40 | 359 | 5.2 | 6.1 | 0.00 | 0.00 | 0.00 | 72 | 1014.4 |
| 20260506194727 | 41 | 31 | 2.6 | 3.5 | 0.00 | 0.00 | 0.00 | 67 | 1014.6 |
| 20260506192726 | 41 | 94 | 1.7 | 3.5 | 0.00 | 0.00 | 0.00 | 73 | 1014.7 |
| 20260506184726 | 42 | 79 | 1.7 | 1.7 | 0.00 | 0.00 | 0.00 | 72 | 1014.7 |
| 20260506182727 | 43 | 43 | 1.7 | 2.6 | 0.00 | 0.00 | 0.00 | 60 | 1014.8 |
| 20260506180727 | 44 | 67 | 0.9 | 1.7 | 0.00 | 0.00 | 0.00 | 66 | 1014.7 |
| 20260506174727 | 44 | 348 | 2.6 | 3.5 | 0.00 | 0.00 | 0.00 | 62 | 1014.7 |
| 20260506172725 | 46 | 334 | 3.5 | 4.3 | 0.00 | 0.00 | 0.00 | 60 | 1014.7 |
| 20260506170726 | 46 | 328 | 3.5 | 4.3 | 0.00 | 0.00 | 0.00 | 58 | 1014.9 |
| 20260506164725 | 47 | 314 | 3.5 | 5.2 | 0.00 | 0.00 | 0.00 | 54 | 1015.0 |
| 20260506162726 | 47 | 286 | 2.6 | 4.3 | 0.00 | 0.00 | 0.00 | 62 | 1015.0 |
| 20260506160725 | 47 | 277 | 3.5 | 5.2 | 0.00 | 0.00 | 0.00 | 59 | 1015.0 |
| 20260506154726 | 47 | 282 | 4.3 | 6.1 | 0.00 | 0.00 | 0.00 | 65 | 1015.1 |
| 20260506152726 | 46 | 267 | 4.3 | 5.2 | 0.00 | 0.00 | 0.00 | 63 | 1015.1 |
| 20260506150725 | 46 | 257 | 3.5 | 4.3 | 0.00 | 0.00 | 0.00 | 62 | 1015.2 |
| 20260506144725 | 46 | 264 | 4.3 | 5.2 | 0.00 | 0.00 | 0.00 | 64 | 1015.3 |
| 20260506142725 | 45 | 258 | 3.5 | 5.2 | 0.00 | 0.00 | 0.00 | 66 | 1015.2 |
| 20260506140725 | 46 | 258 | 5.2 | 6.1 | 0.00 | 0.00 | 0.00 | 66 | 1015.2 |
| 20260506134725 | 46 | 250 | 5.2 | 7.0 | 0.00 | 0.00 | 0.00 | 69 | 1015.4 |
| 20260506130725 | 46 | 254 | 5.2 | 7.0 | 0.00 | 0.00 | 0.00 | 72 | 1015.4 |
| 20260506124725 | 46 | 260 | 5.2 | 7.0 | 0.00 | 0.00 | 0.00 | 75 | 1015.5 |
| 20260506122724 | 46 | 257 | 5.2 | 7.0 | 0.00 | 0.00 | 0.00 | 72 | 1015.4 |